KI5NYZ Weather Reports


Display with metric or nautical units.
time (UTC)temp
F
wind
direction
speed
MPH
gust
MPH
rain 1hr
in
rain 24hr
in
rain mn
in
humidity
%
barometer
mb
20260507232519 78 154 2.0 6.0 0.00 0.31 0.00 29 1013.9
20260507231539 78 184 4.0 8.0 0.00 0.31 0.00 29 1014.0
20260507230519 78 183 3.0 9.0 0.00 0.31 0.00 29 1014.0
20260507225542 78 182 2.0 5.0 0.00 0.31 0.00 29 1014.2
20260507224520 78 206 4.0 9.0 0.00 0.31 0.00 29 1014.4
20260507223521 77 185 3.0 8.0 0.00 0.31 0.00 29 1014.5
20260507222519 78 208 4.0 10.0 0.00 0.31 0.00 29 1014.7
20260507221520 78 173 3.0 8.0 0.00 0.31 0.00 30 1014.7
20260507220521 78 175 2.0 7.0 0.00 0.31 0.00 30 1014.7
20260507215521 77 135 2.0 6.0 0.00 0.31 0.00 29 1014.7
20260507214521 77 204 3.0 9.0 0.00 0.31 0.00 30 1014.8
20260507213520 77 178 1.0 4.0 0.00 0.31 0.00 30 1014.9
20260507212521 77 103 2.0 5.0 0.00 0.31 0.00 30 1015.0
20260507211520 77 119 1.0 5.0 0.00 0.31 0.00 30 1015.3
20260507210522 76 182 2.0 7.0 0.00 0.31 0.00 30 1015.4
20260507205523 76 232 3.0 10.0 0.00 0.31 0.00 30 1015.6
20260507204523 76 102 1.0 4.0 0.00 0.31 0.00 31 1015.9
20260507203542 75 157 1.0 5.0 0.00 0.31 0.00 31 1016.0
20260507202538 74 100 1.0 4.0 0.00 0.31 0.00 32 1016.2
20260507201522 74 54 1.0 3.0 0.00 0.31 0.00 33 1016.3
20260507200519 73 103 2.0 5.0 0.00 0.31 0.00 35 1016.5
20260507195519 73 60 2.0 6.0 0.00 0.31 0.00 34 1016.7
20260507194519 73 200 2.0 8.0 0.00 0.31 0.00 34 1017.0
20260507193520 73 126 1.0 4.0 0.00 0.31 0.00 35 1017.1
20260507192539 72 214 2.0 8.0 0.00 0.31 0.00 35 1017.3
20260507191540 71 215 2.0 9.0 0.00 0.31 0.00 37 1017.4
20260507190520 70 23 2.0 6.0 0.00 0.31 0.00 38 1017.5
20260507185520 70 255 3.0 12.0 0.00 0.31 0.00 39 1017.7
20260507184540 69 2 2.0 6.0 0.00 0.31 0.00 39 1017.9
20260507183520 69 169 2.0 6.0 0.00 0.31 0.00 39 1018.0
20260507182542 67 167 2.0 5.0 0.00 0.31 0.00 41 1018.2
20260507181521 67 294 3.0 7.0 0.00 0.31 0.00 42 1018.4
20260507180521 67 199 2.0 9.0 0.00 0.31 0.00 41 1018.6
20260507175521 68 147 2.0 7.0 0.00 0.31 0.00 41 1018.9
20260507174541 66 285 1.0 5.0 0.00 0.31 0.00 42 1019.1
20260507173524 65 165 1.0 6.0 0.00 0.31 0.00 43 1019.3
20260507172519 64 213 3.0 7.0 0.00 0.31 0.00 45 1019.5
20260507171518 65 190 3.0 7.0 0.00 0.31 0.00 44 1019.6
20260507170518 64 192 2.0 8.0 0.00 0.31 0.00 45 1019.8
20260507165519 63 217 1.0 4.0 0.00 0.31 0.00 46 1019.9
20260507164540 62 125 2.0 5.0 0.00 0.31 0.00 48 1020.1
20260507163518 62 125 2.0 6.0 0.00 0.32 0.00 47 1020.2
20260507162519 61 121 1.0 4.0 0.00 0.32 0.00 48 1020.4
20260507161520 60 219 0.0 3.0 0.00 0.32 0.00 49 1020.5
20260507160519 60 137 2.0 5.0 0.00 0.32 0.00 50 1020.5
20260507155519 58 107 0.0 3.0 0.00 0.32 0.00 52 1020.6
20260507154520 58 108 1.0 4.0 0.00 0.33 0.00 52 1020.7
20260507153540 57 108 1.0 4.0 0.00 0.35 0.00 54 1020.7
20260507152520 57 116 1.0 6.0 0.00 0.36 0.00 54 1020.7
20260507151520 57 111 1.0 3.0 0.00 0.36 0.00 55 1020.7
20260507150540 56 119 1.0 4.0 0.00 0.36 0.00 56 1020.8
20260507145520 55 120 2.0 4.0 0.00 0.37 0.00 58 1020.8
20260507144521 55 112 2.0 4.0 0.00 0.37 0.00 59 1020.8
20260507143521 54 108 3.0 5.0 0.00 0.37 0.00 60 1020.9
20260507142541 54 112 3.0 5.0 0.00 0.37 0.00 59 1021.0
20260507141521 52 117 3.0 4.0 0.00 0.37 0.00 61 1021.1
20260507140522 52 113 4.0 6.0 0.00 0.37 0.00 62 1021.0
20260507135518 52 107 3.0 6.0 0.00 0.37 0.00 61 1020.9
20260507134519 51 112 4.0 6.0 0.00 0.37 0.00 62 1020.8
20260507133559 51 102 3.0 5.0 0.00 0.37 0.00 61 1020.7
20260507132519 50 98 3.0 5.0 0.00 0.37 0.00 59 1020.7
20260507131519 50 94 3.0 5.0 0.00 0.37 0.00 59 1020.5
20260507130520 49 83 2.0 3.0 0.00 0.37 0.00 59 1020.5
20260507125519 49 86 2.0 4.0 0.00 0.37 0.00 60 1020.4
20260507124600 48 75 1.0 2.0 0.00 0.37 0.00 61 1020.4
20260507123521 47 68 1.0 2.0 0.00 0.37 0.00 62 1020.3
20260507122520 47 62 1.0 3.0 0.00 0.37 0.00 63 1020.0
20260507121520 47 70 2.0 3.0 0.00 0.37 0.00 64 1019.9
20260507120520 47 85 2.0 4.0 0.00 0.37 0.00 63 1019.9
20260507115521 48 96 2.0 5.0 0.00 0.37 0.00 63 1019.9
20260507114541 49 95 3.0 7.0 0.00 0.37 0.00 61 1019.9
20260507113522 49 95 4.0 8.0 0.00 0.37 0.00 60 1019.9
20260507112524 50 92 3.0 6.0 0.00 0.37 0.00 60 1019.9
20260507111521 50 89 4.0 6.0 0.00 0.37 0.00 59 1019.9
20260507110521 50 92 4.0 7.0 0.00 0.37 0.00 59 1020.0
20260507105522 50 85 5.0 8.0 0.00 0.37 0.00 58 1019.9
20260507104519 50 81 3.0 5.0 0.00 0.37 0.00 59 1019.9
20260507103519 50 75 4.0 6.0 0.00 0.37 0.00 59 1019.9
20260507102520 51 76 3.0 6.0 0.00 0.37 0.00 60 1020.0
20260507101518 51 77 4.0 7.0 0.00 0.37 0.00 61 1019.9
20260507100519 50 75 4.0 8.0 0.00 0.37 0.00 62 1019.9
20260507095519 49 62 3.0 6.0 0.00 0.37 0.00 67 1019.9
20260507094521 49 59 2.0 3.0 0.00 0.37 0.00 69 1019.8
20260507093520 50 63 2.0 4.0 0.00 0.37 0.00 69 1019.8
20260507092519 50 63 1.0 3.0 0.00 0.37 0.00 69 1019.7
20260507091520 51 71 1.0 3.0 0.00 0.37 0.00 68 1019.6
20260507090521 51 75 3.0 4.0 0.00 0.37 0.00 67 1019.6
20260507085520 51 76 3.0 5.0 0.00 0.37 0.00 67 1019.6
20260507084520 51 72 2.0 4.0 0.00 0.37 0.00 67 1019.6
20260507083520 51 76 2.0 4.0 0.00 0.37 0.00 67 1019.4
20260507082520 52 72 2.0 4.0 0.00 0.37 0.00 66 1019.3
20260507081540 52 75 2.0 5.0 0.00 0.37 0.00 64 1019.2
20260507080522 52 75 2.0 4.0 0.00 0.37 0.00 64 1019.2
20260507075541 53 68 3.0 5.0 0.00 0.37 0.00 63 1019.3
20260507074521 53 66 3.0 6.0 0.00 0.37 0.00 62 1019.2
20260507073542 53 65 4.0 6.0 0.00 0.37 0.00 62 1019.2
20260507072523 54 72 3.0 4.0 0.00 0.37 0.00 62 1018.9
20260507071521 54 89 2.0 4.0 0.00 0.37 0.00 61 1018.7
20260507070519 54 68 2.0 4.0 0.00 0.37 0.00 60 1018.9
20260507065521 55 79 2.0 4.0 0.00 0.37 0.00 59 1018.8
20260507064519 55 84 4.0 7.0 0.00 0.37 0.00 58 1018.6
20260507063522 56 82 3.0 5.0 0.00 0.37 0.00 57 1018.7
20260507062521 56 71 3.0 6.0 0.00 0.37 0.00 56 1018.8
20260507061520 55 65 3.0 5.0 0.00 0.37 0.00 57 1018.6
20260507060521 55 49 3.0 5.0 0.00 0.37 0.00 59 1018.2
20260507055520 56 100 1.0 3.0 0.00 0.37 0.00 58 1017.6
20260507054520 56 105 1.0 3.0 0.00 0.37 0.00 57 1017.3
20260507053520 57 115 2.0 3.0 0.00 0.37 0.00 56 1017.1
20260507052521 58 122 2.0 4.0 0.00 0.37 0.00 54 1017.0
20260507051530 59 127 3.0 5.0 0.02 0.37 0.00 53 1016.7
20260507050543 60 124 3.0 4.0 0.02 0.37 0.00 52 1016.6
20260507045523 60 128 2.0 5.0 0.03 0.37 0.37 51 1016.4
20260507044521 60 165 1.0 5.0 0.07 0.37 0.37 50 1016.1
20260507043521 61 120 3.0 5.0 0.09 0.37 0.37 49 1016.2
20260507042521 61 117 4.0 7.0 0.12 0.37 0.37 48 1015.9
20260507041521 62 119 3.0 6.0 0.17 0.36 0.36 47 1015.9
20260507040521 62 117 4.0 6.0 0.21 0.36 0.36 46 1015.6
20260507035538 63 89 5.0 8.0 0.25 0.35 0.35 45 1015.4
20260507034519 63 61 4.0 8.0 0.24 0.31 0.31 44 1015.2
20260507033540 64 57 5.0 9.0 0.22 0.28 0.28 44 1014.9
20260507032519 64 148 7.0 11.0 0.18 0.25 0.25 43 1014.7
20260507031522 65 144 7.0 9.0 0.13 0.19 0.19 42 1014.8
20260507030520 66 116 6.0 10.0 0.09 0.15 0.15 41 1014.6
20260507025519 66 118 5.0 12.0 0.04 0.10 0.10 41 1014.5
20260507024520 66 119 3.0 7.0 0.00 0.06 0.06 41 1014.3
20260507023519 66 121 3.0 5.0 0.00 0.06 0.06 41 1014.0
20260507022540 66 120 2.0 4.0 0.00 0.06 0.06 41 1013.8
20260507021523 67 191 0.0 2.0 0.00 0.06 0.06 40 1013.6
20260507020600 68 180 0.0 2.0 0.00 0.06 0.06 39 1013.4
20260507015522 68 185 0.0 4.0 0.00 0.06 0.06 39 1013.3
20260507014520 69 178 0.0 3.0 0.00 0.06 0.06 38 1013.2
20260507013520 71 154 0.0 4.0 0.00 0.06 0.06 36 1013.1
20260507012522 72 158 1.0 4.0 0.00 0.06 0.06 34 1012.9
20260507011522 73 178 3.0 7.0 0.00 0.06 0.06 33 1012.8
20260507010521 74 176 3.0 8.0 0.00 0.06 0.06 32 1012.7
20260507005521 74 154 1.0 6.0 0.00 0.06 0.06 31 1012.6
20260507004521 75 153 2.0 6.0 0.00 0.06 0.06 30 1012.5
20260507003522 75 105 1.0 4.0 0.00 0.06 0.06 30 1012.5
20260507002523 76 163 2.0 6.0 0.00 0.06 0.06 29 1012.4
20260507001539 76 168 2.0 8.0 0.00 0.06 0.06 29 1012.4
20260507000521 76 160 2.0 7.0 0.00 0.06 0.06 29 1012.3
20260506235520 77 137 1.0 5.0 0.00 0.06 0.06 28 1012.3
20260506234519 76 179 2.0 7.0 0.00 0.06 0.06 28 1012.4
20260506233540 76 107 2.0 5.0 0.00 0.06 0.06 27 1012.4